Probability
0 0 0 0 0 0 0 0 0 0 0 0 0 0 0 0 0 0 0 0 0 0 0 0 0 0 0 0 0 0 0 0 0 0 0 0 0 0 0 0 0 0 0 0
0 0 0 0 0 0 0 0 0 0 0 0 0 0 0 0 0 0 0 0 0 0 0 0 0 0 0 0 0 0 0 0 0 0 0 0 0 0 0 0 0 0 0 0
0 0 0 0 0 0 0 0 0 0 0 0 0 0 0 0 0 0 0 0 0 0 0 0 0 0 0 0 0 0 0 0 0 0 0 0 0 0 0 0 0 0 0 0
0 0 0 0 0 0 0 0 0 0 0 0 0 0 0 0 0 0 0 0 0 0 0 0 0 0 0 0 0 0 0 0 0 0 0 0 0 0 0 0 0 0 0 0
0 0 0 0 0 0 0 0 0 0 0 0 0 0 0 0 0 0 0 0 0 0 0 0 0 0 0 0 0 0 0 0 0 0 0 0 0 0 0 0 0 0 0 0
0 0 0 0 0 0 0 0 0 0 0 0 0 0 0 0 0 0 0 0 0 0 0 0 0 0 0 0 0 0 0 0 0 0 0 0 0 0 0 0 0 0 0 0
0 0 0 0 0 0 0 0 0 0 0 0 0 0 0 0 0 0 0 0 0 0 0 0 0 0 0 0 0 0 0 0 0 0 0 0 0 0 0 0 0 0 0 0
0 0 0 0 0 0 0 0 0 0 0 0 0 0 0 0 0 0 0 0 0 0 0 0 0 0 0 0 0 0 0 0 0 0 0 0 0 0 0 0 0 0 0 0
0 0 0 0 0 0 0 0 0 0 0 0 0 0 0 0 0 0 0 0 0 0 0 0 0 0 0 0 0 0 0 0 0 0 0 0 0 0 0 0 0 0 0 0
0 0 0 0 0 0 0 0 0 0 0 0 0 0 0 0 0 0 0 0 0 0 0 0 0 0 0 0 0 0 0 0 0 0 0 0 0 0 0 0 0 0 0 0
0 0 0 0 0 0 0 0 0 0 0 0 0 0 0 0 0 0 0 0 0 0 0 0 0 0 0 0 0 0 0 0 0 0 0 0 0 0 0 0 0 0 0 0
0 0 0 0 0 0 0 0 0 0 0 0 0 0 0 0 0 0 0 0 0 0 0 0 0 0 0 0 0 0 0 0 0 0 0 0 0 0 0 0 0 0 0 0
0 0 0 0 0 0 0 0 0 0 0 0 0 0 0 0 0 0 0 0 0 0 0 0 0 0 0 0 0 0 0 0 0 0 0 0 0 0 0 0 0 0 0 0
0 0 0 0 0 0 0 0 0 0 0 0 0 0 0 0 0 0 0 0 0 0 0 0 0 0 0 0 0 0 0 0 0 0 0 0 0 0 0 0 0 0 0 0
0 0 0 0 0 0 0 0 0 0 0 0 0 0 0 0 0 0 0 0 0 0 0 0 0 0 0 0 0 0 0 0 0 0 0 0 0 0 0 0 0 0 0 0
0 0 0 0 0 0 0 0 0 0 0 0 0 0 0 0 0 0 0 0 0 0 0 0 0 0 0 0 0 0 0 0 0 0 0 0 0 0 0 0 0 0 0 0
0 0 0 0 0 0 0 0 0 0 0 0 0 0 0 0 0 0 0 0 0 0 0 0 0 0 0 0 0 0 0 0 0 0 0 0 0 0 0 0 0 0 0 0
0 0 0 0 0 0 0 0 0 0 0 0 0 0 0 0 0 0 0 0 0 0 0 0 0 0 0 0 0 0 0 0 0 0 0 0 0 0 0 0 0 0 0 0
0 0 0 0 0 0 0 0 0 0 0 0 0 0 0 0 0 0 0 0 0 0 0 0 0 0 0 0 0 0 0 0 0 0 0 0 0 0 0 0 0 0 0 0
0 0 0 0 0 0 0 0 0 0 0 0 0 0 0 0 0 0 0 0 0 0 0 0 0 0 0 0 0 0 0 0 0 0 0 0 0 0 0 0 0 0 0 0
0 0 0 0 0 0 0 0 0 0 0 0 0 0 0 0 0 0 0 0 0 0 0 0 0 0 0 0 0 0 0 0 0 0 0 0 0 0 0 0 0 0 0 0
0 0 0 0 0 0 0 0 0 0 0 0 0 0 0 0 0 0 0 0 0 0 0 0 0 0 0 0 0 0 0 0 0 0 0 0 0 0 0 0 0 0 0 0
0 0 0 0 0 0 0 0 0 0 0 0 0 0 0 0 0 0 0 0 0 0 0 0 0 0 0 0 0 0 0 0 0 0 0 0 0 0 0 0 0 0 0 0
0 0 0 0 0 0 0 0 0 0 0 0 0 0 0 0 0 0 0 0 0 0 0 0 0 0 0 0 0 0 0 0 0 0 0 0 0 0 0 0 0 0 0 0
0 0 0 0 0 0 0 0 0 0 0 0 0 0 0 0 0 0 0 0 0 0 0 0 0 0 0 0 0 0 0 0 0 0 0 0 0 0 0 0 0 0 0 0
0 0 0 0 0 0 0 0 0 0 0 0 0 0 0 0 0 0 0 0 0 0 0 0 0 0 0 0 0 0 0 0 0 0 0 0 0 0 0 0 0 0 0 0
0 0 0 0 0 0 0 0 0 0 0 0 0 0 0 0 0 0 0 0 0 0 0 0 0 0 0 0 0 0 0 0 0 0 0 0 0 0 0 0 0 0 0 0
Height
5636 5639 5642 5644 5647 5649 5652 5656 5659 5661 5663 5668 5671 5674 5676 5678 5681 5683 5686 5688 5689 5691 5692 5692 5693 5692 5692 5691 5690 5689 5688 5686 5684 5681 5679 5676 5672 5668 5663 5658 5652 5645 5637 5629
5633 5635 5638 5640 5643 5646 5649 5651 5654 5657 5660 5663 5666 5669 5671 5674 5676 5678 5681 5682 5684 5685 5686 5686 5686 5686 5685 5685 5684 5682 5680 5678 5676 5674 5671 5668 5665 5661 5656 5651 5645 5638 5631 5624
5631 5632 5634 5638 5641 5643 5646 5648 5651 5654 5658 5659 5663 5665 5667 5669 5672 5674 5676 5678 5679 5679 5680 5680 5680 5680 5679 5678 5677 5675 5674 5672 5669 5667 5665 5661 5658 5654 5649 5644 5639 5633 5626 5620
5628 5631 5633 5638 5638 5640 5642 5645 5648 5651 5653 5656 5658 5661 5663 5665 5667 5669 5671 5673 5674 5674 5675 5675 5675 5675 5674 5673 5671 5669 5667 5665 5663 5661 5658 5655 5652 5648 5643 5639 5634 5628 5623 5617
5626 5628 5631 5634 5635 5637 5640 5642 5645 5647 5649 5652 5654 5656 5659 5661 5663 5665 5666 5668 5669 5669 5670 5670 5670 5669 5668 5667 5665 5663 5662 5660 5658 5655 5652 5649 5646 5642 5638 5634 5629 5624 5619 5614
5624 5626 5629 5633 5633 5634 5638 5640 5642 5643 5645 5647 5650 5653 5655 5657 5658 5660 5661 5663 5664 5665 5665 5665 5665 5664 5663 5662 5660 5658 5656 5654 5652 5650 5647 5644 5641 5637 5633 5629 5625 5620 5616 5611
5622 5624 5627 5629 5630 5632 5636 5638 5638 5640 5641 5643 5646 5649 5651 5652 5654 5655 5657 5658 5659 5660 5661 5661 5660 5659 5658 5657 5655 5653 5652 5650 5647 5645 5642 5639 5636 5633 5629 5625 5621 5617 5613 5609
5619 5621 5626 5626 5627 5630 5632 5633 5634 5635 5637 5639 5641 5643 5645 5647 5649 5651 5652 5654 5655 5655 5656 5655 5655 5654 5653 5652 5650 5649 5647 5645 5643 5640 5638 5635 5632 5628 5625 5621 5618 5614 5610 5606
5616 5620 5620 5621 5623 5625 5627 5628 5630 5631 5633 5635 5637 5639 5641 5643 5644 5646 5647 5649 5649 5650 5650 5650 5649 5649 5648 5647 5645 5644 5642 5640 5638 5636 5633 5630 5627 5624 5621 5618 5614 5611 5607 5604
5611 5613 5615 5616 5618 5620 5622 5623 5625 5627 5628 5630 5632 5634 5636 5638 5639 5641 5642 5643 5644 5644 5644 5644 5644 5643 5642 5641 5640 5639 5637 5636 5633 5631 5629 5626 5623 5620 5617 5614 5610 5607 5604 5600
5604 5607 5609 5611 5613 5614 5616 5618 5619 5621 5623 5624 5626 5628 5630 5632 5633 5635 5636 5637 5638 5638 5638 5638 5638 5637 5637 5636 5634 5633 5632 5630 5628 5626 5624 5621 5618 5616 5613 5610 5606 5603 5599 5596
5598 5600 5602 5605 5607 5608 5610 5612 5613 5615 5616 5618 5620 5621 5623 5625 5627 5628 5629 5630 5631 5631 5632 5632 5631 5631 5630 5629 5628 5627 5626 5624 5623 5621 5618 5616 5613 5611 5607 5604 5601 5598 5594 5591
5589 5591 5594 5598 5600 5602 5603 5605 5606 5608 5610 5611 5613 5614 5616 5618 5619 5621 5622 5623 5624 5624 5625 5625 5624 5624 5623 5623 5622 5621 5619 5618 5616 5615 5613 5610 5608 5605 5602 5599 5595 5592 5588 5584
5579 5582 5586 5590 5592 5594 5596 5598 5599 5601 5602 5604 5605 5607 5609 5610 5612 5613 5614 5615 5616 5617 5617 5617 5617 5617 5616 5615 5615 5614 5612 5611 5610 5608 5606 5604 5601 5599 5596 5593 5589 5585 5582 5578
5568 5572 5577 5581 5584 5587 5589 5591 5592 5594 5595 5596 5598 5599 5601 5602 5603 5605 5606 5607 5608 5608 5609 5609 5609 5609 5608 5608 5607 5606 5605 5604 5603 5601 5599 5597 5594 5592 5589 5586 5582 5579 5575 5571
5556 5562 5567 5573 5577 5579 5582 5584 5585 5587 5588 5589 5590 5591 5592 5594 5595 5596 5597 5598 5599 5600 5600 5601 5601 5600 5600 5600 5599 5599 5598 5597 5595 5593 5591 5589 5587 5584 5582 5578 5575 5571 5568 5564
5548 5554 5560 5565 5569 5572 5575 5576 5578 5579 5580 5581 5582 5583 5584 5585 5586 5587 5588 5589 5590 5591 5591 5592 5592 5592 5592 5591 5591 5591 5590 5589 5587 5586 5584 5582 5579 5577 5574 5571 5567 5564 5560 5556
5544 5550 5555 5559 5563 5565 5568 5569 5571 5572 5572 5573 5574 5575 5576 5576 5577 5578 5579 5580 5581 5582 5582 5582 5583 5583 5583 5583 5583 5583 5582 5581 5579 5578 5576 5574 5571 5569 5566 5563 5559 5556 5552 5548
5542 5546 5550 5554 5557 5559 5561 5562 5563 5564 5565 5565 5566 5566 5567 5567 5568 5569 5570 5571 5571 5572 5573 5573 5574 5574 5574 5574 5574 5574 5573 5572 5571 5569 5568 5565 5563 5561 5558 5555 5551 5548 5544 5540
5540 5543 5546 5549 5551 5553 5554 5555 5556 5557 5557 5557 5557 5558 5558 5558 5559 5560 5561 5561 5562 5563 5563 5564 5565 5565 5565 5565 5565 5565 5565 5564 5562 5561 5559 5557 5555 5552 5549 5546 5543 5539 5536 5531
5538 5540 5542 5544 5546 5547 5548 5549 5549 5550 5550 5549 5549 5550 5550 5550 5550 5551 5552 5552 5553 5554 5554 5555 5556 5556 5556 5556 5556 5556 5556 5555 5553 5552 5550 5548 5546 5543 5541 5538 5534 5531 5527 5523
5535 5536 5538 5539 5541 5542 5543 5543 5543 5543 5543 5543 5542 5542 5542 5542 5543 5543 5543 5544 5544 5545 5545 5546 5547 5547 5547 5547 5547 5547 5546 5546 5544 5543 5541 5539 5537 5535 5532 5529 5526 5522 5518 5514
5531 5532 5533 5534 5535 5536 5537 5537 5538 5538 5538 5537 5537 5537 5536 5536 5536 5536 5536 5536 5536 5537 5537 5537 5538 5538 5539 5538 5538 5538 5538 5537 5536 5534 5532 5530 5528 5526 5523 5520 5517 5513 5509 5505
5526 5527 5528 5529 5530 5531 5531 5532 5532 5532 5532 5532 5532 5531 5531 5530 5530 5529 5529 5529 5529 5529 5529 5529 5530 5530 5530 5530 5530 5529 5529 5528 5527 5525 5523 5522 5519 5517 5514 5511 5508 5504 5500 5496
5520 5521 5522 5523 5524 5525 5526 5526 5526 5527 5527 5526 5526 5526 5525 5525 5524 5524 5523 5523 5523 5522 5522 5522 5522 5522 5522 5521 5521 5521 5520 5519 5518 5516 5515 5513 5511 5508 5505 5502 5499 5495 5491 5487
5514 5515 5516 5517 5518 5519 5520 5520 5520 5521 5521 5521 5520 5520 5519 5519 5518 5517 5517 5516 5516 5515 5515 5515 5515 5514 5514 5514 5513 5513 5512 5511 5509 5508 5506 5504 5502 5499 5496 5493 5490 5486 5483 5478
5507 5508 5509 5510 5511 5512 5513 5513 5514 5514 5514 5514 5514 5513 5512 5512 5511 5510 5510 5509 5509 5509 5508 5508 5507 5507 5507 5506 5506 5505 5504 5502 5501 5499 5498 5495 5493 5491 5488 5485 5481 5478 5474 5470
Wind_Speed
18 19 20 21 21 22 22 22 23 25 25 23 23 24 25 26 25 25 24 24 24 24 24 24 24 25 25 26 27 28 29 29 29 30 31 32 32 33 34 34 35 35 35 35
18 19 21 21 21 21 21 21 22 23 22 21 21 22 23 23 23 23 23 22 22 22 21 21 21 22 24 25 27 28 29 28 29 29 30 30 31 31 32 32 32 32 32 31
17 18 19 18 18 18 18 19 21 21 20 20 20 21 21 21 22 22 21 21 20 19 18 18 19 20 21 23 25 26 26 27 27 28 28 28 29 29 29 30 29 29 28 27
15 16 16 15 16 17 18 19 19 19 20 19 19 20 20 20 20 20 19 18 17 16 16 16 17 18 20 21 23 24 24 24 25 25 26 26 27 27 27 26 26 26 25 24
13 14 14 14 15 16 16 17 17 18 18 18 18 19 19 18 18 17 17 16 16 15 15 16 16 17 19 20 21 22 22 22 22 23 23 23 24 24 24 23 23 22 21 20
13 13 13 13 14 15 16 16 16 17 17 17 17 17 17 17 16 15 15 15 15 15 15 15 15 16 17 18 19 20 20 20 20 20 20 21 21 21 21 21 20 20 19 19
13 13 13 13 14 15 15 14 16 16 16 17 17 17 17 16 15 15 15 15 15 15 15 15 15 15 16 17 18 18 18 19 19 19 19 20 20 19 19 19 19 19 19 18
15 15 14 14 15 15 14 15 16 16 17 18 18 17 17 17 16 16 16 16 16 16 16 15 15 16 16 17 17 18 18 18 18 18 19 19 19 19 19 19 19 19 19 18
18 17 16 16 17 16 17 17 17 17 18 19 19 19 19 19 18 17 17 17 17 17 17 16 16 17 17 18 18 18 18 19 19 19 19 19 19 19 19 19 19 19 19 19
21 20 19 19 19 19 19 20 20 19 20 21 21 21 21 21 20 20 19 18 18 18 17 17 17 18 18 19 19 19 19 20 20 19 19 19 19 19 19 20 20 19 20 20
24 23 23 22 21 21 21 21 21 22 22 22 23 23 23 23 23 22 21 20 20 19 19 19 19 19 19 20 20 21 21 21 21 21 20 21 21 21 21 21 21 21 22 22
28 27 27 25 23 23 23 23 23 23 23 24 24 24 24 24 24 24 23 23 22 22 21 20 20 20 21 21 22 22 22 22 22 22 22 22 22 22 23 23 23 24 24 25
31 30 29 27 25 25 24 24 24 25 25 25 25 25 25 26 25 25 25 25 24 23 23 22 22 22 22 22 23 23 23 24 24 24 24 24 24 24 25 25 26 27 27 28
33 33 31 28 27 26 25 25 25 25 25 25 26 26 26 27 27 27 26 26 25 25 24 24 24 24 23 24 24 24 24 25 25 25 26 26 26 26 27 27 28 29 30 31
36 34 32 29 27 26 25 25 25 25 25 26 26 26 27 27 27 27 27 27 27 26 26 26 26 26 25 26 26 25 25 26 26 27 27 27 27 28 28 29 30 30 31 32
33 33 32 30 28 26 25 25 25 25 26 26 26 26 27 27 28 28 28 28 28 28 27 27 27 27 27 27 27 27 27 27 27 28 28 28 29 30 30 31 31 32 33 33
28 30 29 28 27 26 25 25 25 25 26 26 26 27 27 27 28 29 29 29 29 29 29 29 29 29 28 28 28 28 28 28 28 29 29 30 31 31 31 32 32 33 33 34
23 25 26 25 24 24 24 25 25 25 26 26 27 27 28 28 28 29 29 29 30 30 30 30 30 30 29 29 28 28 28 29 29 30 30 30 30 31 31 32 32 33 34 34
19 21 22 23 23 24 24 24 25 25 26 27 27 28 28 29 29 29 29 30 30 30 30 30 30 30 30 30 30 29 30 30 30 30 30 30 30 31 32 32 33 33 34 34
17 19 20 21 21 22 23 23 23 24 24 25 26 26 27 28 28 29 29 29 30 30 30 30 30 30 31 31 31 31 31 31 31 31 31 31 32 32 32 33 33 33 34 35
17 17 18 18 19 19 20 20 21 21 22 23 24 24 25 26 27 27 28 28 29 29 29 30 30 31 31 31 31 31 31 31 31 31 31 32 32 32 32 33 33 33 34 35
16 16 16 17 17 17 17 17 17 17 18 19 20 20 21 22 23 24 25 26 27 28 28 29 30 30 30 30 30 30 30 30 31 31 31 31 32 32 32 32 33 34 35 36
17 17 17 17 17 17 16 16 16 16 16 16 17 17 17 18 20 21 22 23 24 26 26 27 28 28 29 29 30 30 30 31 31 31 31 31 31 32 32 33 33 35 36 36
18 18 17 18 18 18 17 17 17 17 17 17 16 16 17 17 18 18 19 20 21 22 24 25 26 27 27 28 28 29 29 29 30 30 30 30 31 31 32 33 34 35 35 36
18 19 18 19 19 19 19 18 18 18 17 17 17 18 18 18 19 19 20 20 20 21 21 22 23 24 25 25 26 27 27 28 29 29 30 31 31 31 32 33 33 34 35 36
21 21 21 21 21 20 20 19 19 18 18 19 19 20 20 21 21 21 21 21 21 22 22 22 22 23 23 24 24 25 26 26 27 28 29 29 30 31 32 33 33 34 35 35
24 24 24 24 24 23 23 23 23 23 23 24 24 24 24 24 23 23 22 21 21 21 21 21 22 22 22 23 24 24 25 26 27 28 29 30 31 32 33 34 34 34 34 34
Wind_Direction
224 225 227 230 231 232 231 230 229 232 238 236 234 235 237 239 241 244 245 247 250 255 259 263 268 272 276 278 281 283 286 286 287 290 291 294 298 302 304 307 311 317 320 321
227 229 230 233 234 233 230 229 229 232 236 235 232 235 238 240 242 244 245 248 253 257 260 266 272 275 278 280 284 285 286 287 288 291 292 295 299 303 306 309 313 318 323 325
229 230 230 229 230 228 226 225 226 228 232 233 233 236 238 239 239 241 244 247 250 255 261 268 275 279 282 285 287 287 288 288 290 292 294 297 302 305 308 311 315 320 325 329
225 227 226 222 222 221 222 224 227 229 233 235 235 235 235 236 237 238 240 244 249 256 263 270 277 283 287 289 290 290 291 292 294 295 297 301 304 307 310 314 317 320 326 331
226 227 223 220 222 223 224 225 228 231 234 235 234 233 232 233 235 236 241 246 252 257 264 272 280 287 291 294 295 294 294 294 296 299 301 304 308 311 314 317 321 325 330 334
230 230 228 223 229 230 230 231 234 235 236 236 234 232 231 234 236 240 244 248 253 258 266 273 282 290 295 299 299 298 297 297 299 302 305 308 311 314 317 320 324 328 333 336
237 236 233 231 236 235 236 238 240 239 237 236 235 233 234 237 241 244 247 251 255 260 268 275 283 291 297 300 301 299 298 298 301 304 307 310 312 315 318 322 325 329 332 334
243 242 240 239 241 242 244 244 245 242 239 238 237 236 237 239 243 247 250 254 257 262 269 276 283 289 295 297 298 297 298 299 301 305 308 310 313 316 319 323 325 327 329 330
245 246 245 246 247 247 246 246 247 247 244 242 241 240 241 243 246 249 253 257 259 264 270 275 281 287 291 293 294 295 296 297 300 303 306 309 312 314 317 319 320 322 323 324
247 248 248 249 250 250 250 249 249 250 249 246 245 244 245 246 249 251 254 258 261 265 270 274 279 285 288 289 291 292 293 295 296 299 302 306 309 311 313 314 315 316 317 318
247 248 249 250 251 252 252 252 251 250 250 250 248 247 247 248 249 251 254 258 262 265 269 272 277 282 285 287 288 289 290 292 294 295 298 302 305 307 308 310 311 312 313 314
246 247 248 249 252 253 254 254 253 252 251 250 249 248 247 248 250 251 253 257 260 264 268 271 275 280 282 284 286 286 288 289 291 293 296 298 300 302 304 306 308 310 311 312
245 245 247 248 250 252 252 253 253 252 251 251 250 249 248 249 251 252 253 256 259 263 267 270 274 278 280 281 283 284 285 286 288 290 293 295 297 300 302 304 307 309 311 312
243 244 244 245 247 248 249 250 251 250 251 251 251 251 250 251 251 252 253 255 258 262 265 269 272 275 278 279 281 282 283 284 286 288 290 293 295 298 301 303 305 307 309 310
240 240 240 241 243 245 247 249 250 250 251 252 252 251 252 251 252 252 253 255 257 260 263 266 269 272 275 277 278 280 281 283 286 287 289 291 294 297 300 302 304 305 307 308
231 232 234 236 239 242 245 248 250 252 253 253 253 253 253 253 253 253 254 255 257 259 262 265 267 270 273 274 275 277 280 282 285 287 288 289 292 296 299 301 303 305 307 308
224 226 228 231 236 241 245 249 252 255 255 255 255 255 255 255 254 254 254 255 257 259 261 263 265 268 270 272 273 276 278 281 284 287 288 289 292 295 297 300 303 305 306 308
216 221 225 230 236 242 247 252 256 259 259 259 259 259 258 257 257 256 256 257 257 259 261 262 264 266 268 270 272 274 278 281 284 286 288 289 292 294 296 299 302 304 306 307
213 220 226 232 238 244 250 255 259 261 262 263 263 262 261 260 259 259 258 258 259 259 260 262 263 264 267 269 271 274 277 280 283 285 287 289 291 294 296 298 300 302 304 307
218 224 231 238 243 248 254 258 262 263 264 264 265 265 264 262 261 260 260 260 260 260 260 261 263 264 265 267 270 272 276 279 281 284 286 288 290 292 295 297 299 301 304 306
225 230 236 242 246 251 255 259 263 265 266 266 266 266 266 265 264 262 262 262 262 262 262 262 264 265 266 268 270 272 275 277 280 282 285 287 289 291 293 295 297 300 303 307
233 237 240 244 247 252 256 259 263 267 270 270 270 269 269 268 267 266 265 264 263 263 263 263 263 264 266 269 271 273 275 278 280 282 284 287 289 291 293 294 296 300 303 306
243 246 249 250 253 255 257 260 264 270 274 276 276 276 276 275 272 271 269 268 267 265 264 264 264 265 267 269 271 273 276 278 280 282 284 287 289 291 293 294 296 300 303 306
246 248 250 252 255 256 259 261 265 269 272 274 277 279 282 282 281 278 276 274 273 271 268 267 267 268 270 271 273 276 278 279 281 283 285 288 291 293 294 296 298 300 303 306
246 247 250 253 255 256 258 260 263 266 270 274 278 281 283 285 285 283 280 278 277 277 275 273 273 273 273 274 276 278 279 280 281 284 287 290 292 294 296 297 299 301 303 306
249 250 252 254 254 255 257 261 264 266 271 276 280 282 284 286 286 286 283 280 278 278 278 278 277 277 277 278 280 281 283 284 287 289 292 294 295 296 297 299 300 302 304 306
251 252 253 254 255 256 259 262 265 268 272 276 279 281 284 285 284 283 282 282 281 281 281 282 282 282 282 283 284 285 287 290 292 294 295 296 297 298 299 299 301 303 304 306